Вернуться в каталог

DODECAPOLE 2

АктивенВоенныеPO
NORAD 1510·PAYLOAD·🇺🇸 United States

Запущен Aug 13, 1965 с Vandenberg Space Force Base

Loading…

Ближайшие Пролёты (ближайшие 24 часа)

TLE

СвежийSource: Space-Track

Эпоха: Sep 14, 2026, 07:24 UTC

1 01510U 65065C   26257.30890754  .00002045  00000-0  11131-2 0  9997
2 01510  90.0702  25.6665 0037383 255.3513 104.3527 14.11627531 45737

Отслеживайте DODECAPOLE 2 в реальном времени с AllMySat

Download on the App Store